Dewpoint
60 60 60 60 60 60 60 61 61 62 61 61 62 62 59 58 58 58 60 60 60 61 61 61 59 60 58 59 60 59 50 23 19 17 14 18 38 55 54 55 57 59 58 43 28 18 16 16 15 16 5 10 18 18 24 12 29 28 20 17 16 19 14 17 7 14 14 14 17 20 19 24 23 17 18 16 15 15 16 17 18 17 16 13 13 18 17 19
59 60 60 60 60 60 60 61 61 62 61 60 60 60 58 58 57 59 58 59 59 62 60 58 59 57 58 58 58 57 33 23 17 15 15 31 57 57 57 58 59 59 54 27 27 22 18 16 18 16 5 8 18 15 17 13 17 22 19 15 14 18 19 14 6 13 10 8 17 19 18 21 22 16 15 15 15 15 16 16 16 15 15 14 16 16 16 16
59 60 60 60 60 60 60 60 61 61 61 60 58 60 59 57 57 58 58 58 61 61 58 58 58 57 57 59 57 57 29 19 17 12 12 50 54 56 57 57 57 57 29 24 31 25 24 22 20 18 13 5 12 14 15 12 18 21 8 5 15 20 18 11 7 8 10 14 16 18 18 17 18 15 12 13 13 14 15 16 14 15 15 14 16 16 15 14
59 59 60 59 59 59 60 59 59 61 61 61 60 61 59 58 58 58 58 59 61 59 59 57 58 57 57 57 58 44 22 19 16 18 17 47 55 56 55 56 57 53 39 36 34 34 30 23 18 15 16 13 17 12 13 14 11 16 14 11 15 20 6 4 6 8 10 15 16 17 12 16 15 15 12 13 12 12 12 13 15 14 13 14 15 15 14 13
59 59 59 59 59 59 59 59 59 60 60 60 60 60 58 58 58 58 58 59 59 59 59 59 58 57 56 57 56 32 20 10 15 22 18 52 56 57 55 57 58 43 33 34 33 28 29 25 15 18 14 9 20 12 9 8 8 18 12 19 13 7 4 6 8 10 9 12 13 12 13 13 11 11 13 12 11 9 12 13 15 14 13 13 14 15 14 12
59 59 58 58 60 59 59 58 59 60 60 60 59 59 58 58 58 58 58 58 58 58 59 60 59 57 55 56 35 34 14 0 22 14 47 51 53 52 52 51 53 41 30 16 17 15 12 10 10 14 16 12 10 9 9 7 12 6 15 6 9 5 4 7 9 10 9 10 12 12 13 11 11 10 11 11 12 11 17 14 17 14 14 12 14 15 13 12
59 59 58 58 59 60 60 60 58 59 60 58 59 58 59 59 59 58 58 57 59 60 59 58 57 57 55 49 39 30 23 18 11 19 47 49 49 47 49 45 47 28 21 15 15 12 13 10 12 20 20 18 17 10 11 16 16 9 8 8 3 6 5 8 8 10 9 9 10 13 13 11 13 11 11 10 11 13 17 20 23 21 20 15 14 14 13 12
58 57 57 56 57 58 59 59 59 58 59 60 60 60 58 58 59 59 59 60 60 59 59 58 57 56 52 36 30 26 20 9 9 21 43 45 29 28 36 28 21 23 17 17 18 14 13 10 7 22 17 11 18 9 21 13 19 15 13 13 4 8 7 9 8 8 9 9 11 9 8 9 12 10 9 7 8 10 11 14 25 17 14 12 13 15 15 13
57 56 56 56 56 56 57 57 58 59 58 59 59 59 58 57 58 57 58 59 58 58 58 58 57 57 49 32 23 19 18 16 17 19 24 18 20 21 21 18 19 17 18 18 19 16 11 14 14 14 12 17 16 20 22 12 14 18 14 8 6 7 8 9 9 9 9 9 10 5 4 7 8 11 7 6 7 8 9 10 19 12 11 10 12 14 14 14
58 56 55 55 55 55 55 56 57 57 57 59 59 58 58 57 57 57 57 57 57 58 58 59 57 54 37 27 25 15 19 21 19 21 20 20 21 19 19 21 16 16 15 15 19 20 15 12 13 14 18 15 21 22 24 13 11 24 20 11 5 8 8 10 7 7 12 9 9 4 5 6 8 8 7 11 10 15 9 9 14 13 11 10 11 13 14 14
58 56 55 56 55 54 55 55 55 55 56 57 57 58 58 57 56 56 57 57 57 57 58 57 56 36 26 19 15 11 18 16 21 20 21 22 20 19 18 21 17 16 16 15 19 21 22 18 17 22 25 18 18 17 20 19 22 14 15 16 14 17 9 9 8 8 8 7 8 6 6 8 8 9 8 8 12 13 8 8 11 16 14 12 11 11 12 13
58 57 56 55 56 55 54 55 54 55 56 57 57 59 58 56 56 56 57 57 57 57 56 58 53 27 26 21 14 10 17 16 23 20 20 22 20 22 23 25 17 16 16 14 16 21 22 23 29 27 17 23 15 19 18 25 15 14 14 10 16 20 11 8 6 8 8 7 8 7 8 8 9 7 8 8 12 10 9 9 9 15 15 16 14 12 12 12
58 57 56 56 55 55 55 54 54 55 55 58 58 57 55 55 55 56 56 57 55 56 56 56 48 36 29 22 16 14 19 19 21 18 17 22 20 20 23 23 20 17 17 15 12 20 29 32 26 24 29 21 23 13 21 16 15 19 16 12 14 21 18 18 9 8 7 7 9 11 9 13 12 8 8 10 11 9 8 8 9 10 9 12 14 13 13 15
56 56 56 56 55 55 55 54 54 55 57 57 57 56 55 55 55 56 56 57 58 57 55 54 37 30 21 17 20 18 28 32 19 17 16 23 19 18 18 20 21 19 20 14 17 26 29 29 24 26 32 25 20 27 22 24 21 10 17 21 12 15 17 19 10 8 6 12 9 14 8 10 10 10 13 13 11 9 7 8 7 10 9 11 13 12 12 14
56 56 56 56 55 55 56 54 54 54 55 57 56 56 55 55 56 56 57 57 56 55 56 49 35 30 22 19 17 18 48 20 15 16 17 19 19 18 18 20 20 20 20 15 14 20 27 28 25 22 18 26 27 18 21 22 22 22 15 16 20 14 18 20 23 6 6 8 16 15 10 10 9 11 14 14 14 9 8 8 8 8 8 10 10 10 10 14
56 56 56 56 55 54 54 54 54 55 54 55 55 55 55 56 56 56 57 57 57 55 47 39 33 28 24 18 15 31 16 14 14 16 18 21 20 18 20 20 19 18 17 23 16 17 23 29 25 22 22 18 23 23 21 18 17 22 12 13 11 16 19 13 14 10 11 9 9 12 11 11 8 11 10 11 10 9 8 8 8 8 8 9 9 10 12 13
56 55 56 55 54 54 54 54 54 54 55 55 55 55 56 56 56 57 56 54 48 47 25 26 32 32 16 20 17 13 13 14 17 16 15 20 21 20 20 19 17 18 20 15 17 17 16 15 22 20 26 17 25 21 12 14 15 13 18 13 18 12 15 13 17 15 15 11 10 12 12 10 10 11 11 15 12 10 8 8 8 8 9 10 10 12 13 13
56 56 56 55 54 54 54 54 54 55 55 55 55 55 53 57 55 53 41 44 44 41 39 36 33 18 14 23 13 13 15 16 17 16 17 18 21 22 21 20 19 18 21 18 16 13 16 13 24 15 21 23 18 18 9 10 12 8 9 12 14 14 15 14 12 17 11 19 12 12 12 10 10 10 11 14 15 10 9 9 7 9 9 12 13 12 12 12
56 56 55 55 54 54 55 55 55 55 55 55 54 55 53 50 44 36 35 35 34 27 22 24 25 14 13 17 23 17 16 17 18 17 17 19 22 22 22 21 21 15 18 16 18 12 20 21 24 19 14 18 17 19 17 18 18 14 15 14 13 9 11 10 16 20 14 13 15 12 10 10 12 12 14 16 15 12 10 9 9 11 13 13 13 14 15 19
56 55 55 55 55 55 55 55 55 55 55 49 44 40 36 31 33 31 35 31 29 31 27 27 29 27 23 14 14 16 18 16 13 16 19 21 23 21 19 22 25 24 19 16 23 17 26 16 15 15 17 18 17 19 19 18 18 19 19 16 14 14 14 16 18 21 22 16 14 13 14 13 13 15 15 15 15 11 9 10 12 15 15 16 17 19 21 22
55 55 54 54 55 55 55 55 55 55 55 43 39 32 17 19 17 18 25 26 28 32 27 28 25 15 14 13 17 18 16 16 15 14 17 21 24 17 16 14 22 17 18 22 21 27 25 18 21 22 20 18 18 19 19 18 17 14 13 12 13 16 11 13 15 21 24 17 18 18 16 16 16 14 15 14 9 8 10 14 15 16 18 20 20 20 20 20
53 53 54 54 55 55 55 55 55 54 50 41 38 31 31 31 28 25 21 15 24 33 32 30 30 22 23 18 19 19 16 14 14 14 19 19 14 12 19 14 16 14 21 25 19 23 21 21 24 25 23 21 22 22 20 16 16 18 13 14 12 13 17 18 20 22 22 18 16 17 14 14 15 14 16 17 16 16 17 17 17 18 18 17 17 18 19 19
53 53 53 54 55 55 55 55 55 50 39 37 34 35 35 40 43 44 25 21 28 34 32 29 20 17 20 21 23 22 16 15 16 16 19 20 17 19 22 20 24 25 22 25 19 20 17 23 25 20 22 17 16 20 18 18 20 11 11 10 11 17 10 12 19 21 19 16 16 16 14 15 13 12 16 17 17 18 19 19 19 18 16 17 18 19 20 20
53 53 53 53 55 55 55 55 52 45 39 37 37 37 38 43 44 41 25 17 18 27 31 30 22 24 20 17 20 21 16 17 17 16 21 20 20 22 24 23 20 19 19 25 24 20 19 18 16 21 19 15 17 16 16 14 12 19 17 13 12 12 14 13 14 18 20 18 20 15 13 9 12 11 14 16 17 16 17 17 17 18 20 20 21 21 21 20
53 53 53 53 55 55 55 50 41 39 41 35 39 41 41 42 43 39 20 16 24 28 33 32 25 23 20 24 25 22 19 24 20 18 21 21 21 20 25 28 18 15 25 26 22 23 21 22 19 19 18 18 16 15 18 15 12 15 19 16 14 15 15 17 16 15 10 8 16 14 8 5 11 11 13 15 16 16 17 17 17 18 18 19 18 19 21 22
53 53 53 54 55 54 52 31 21 42 37 31 37 44 42 42 44 37 23 17 10 20 27 25 25 20 21 21 23 24 25 23 22 19 30 21 28 22 21 22 18 15 20 23 23 21 20 20 19 19 20 21 18 14 17 17 13 11 14 20 17 17 16 15 14 13 8 4 10 15 4 3 9 10 13 15 16 16 17 17 16 17 17 18 19 20 21 22
53 53 53 54 53 48 26 23 22 38 23 31 44 43 41 43 43 38 25 14 10 20 20 29 24 26 24 25 27 23 9 12 20 20 17 23 23 31 16 17 20 26 26 24 19 9 19 19 17 20 17 18 16 14 18 18 14 15 19 19 15 14 14 14 13 12 11 15 18 17 10 4 3 10 14 16 16 16 16 17 17 17 17 18 19 21 21 22
54 53 53 54 52 46 25 33 36 36 23 29 43 43 43 43 41 32 20 -2 -3 24 18 24 27 30 26 28 26 22 18 21 16 21 19 23 29 26 20 17 19 20 21 18 1 18 19 21 19 18 19 16 16 15 18 19 13 17 18 19 16 16 15 14 14 13 15 11 11 10 17 7 5 11 13 15 14 16 16 17 17 17 18 18 19 21 21 21
54 53 53 54 53 51 43 41 31 29 38 43 43 44 44 38 31 20 14 -2 8 20 26 26 33 25 26 28 23 26 26 27 17 21 29 27 27 23 16 20 21 23 25 20 16 19 22 22 21 19 19 17 19 19 20 19 14 17 20 20 20 18 19 16 13 12 10 8 6 9 11 3 4 10 13 13 15 15 16 17 17 18 18 18 19 20 21 22
54 55 54 52 47 39 40 43 37 33 44 42 43 41 39 34 25 17 -1 -6 22 7 27 24 19 18 27 23 22 24 18 21 25 27 26 23 24 27 28 27 25 21 20 22 21 22 19 28 26 19 19 19 20 18 20 20 19 21 19 15 16 13 15 13 12 8 4 1 8 10 12 7 1 9 11 13 15 16 17 18 17 17 17 18 19 20 21 22
54 54 53 51 35 36 34 29 30 42 42 45 43 40 33 24 16 6 -8 -2 23 20 24 19 17 26 24 20 15 22 23 24 23 24 22 24 20 22 22 22 22 19 18 16 16 19 21 24 22 21 27 23 18 18 22 22 21 16 13 12 9 8 6 8 8 7 -1 -1 5 8 11 8 2 4 10 15 17 18 17 15 15 15 16 17 19 20 21 21
54 54 54 44 41 34 23 24 28 43 43 43 40 31 24 6 18 -3 -12 18 5 13 15 15 22 23 22 24 18 17 17 20 22 23 20 20 19 16 17 11 15 8 10 10 11 17 15 22 23 22 29 20 20 13 14 21 20 16 14 11 3 4 2 -5 -0 -2 -2 -0 6 8 10 8 7 10 15 17 18 18 17 17 15 15 16 17 18 20 21 22
54 53 52 48 44 36 37 33 42 43 44 40 31 25 13 9 -8 3 6 12 -1 17 16 20 20 22 21 17 17 20 22 16 21 20 22 21 20 19 21 18 17 7 3 10 10 10 10 17 20 21 21 24 18 10 10 8 12 12 10 7 2 -3 -9 -7 -2 -4 -3 5 7 8 8 6 9 13 17 17 18 19 18 17 16 16 15 16 17 19 21 21
53 50 35 41 41 37 39 42 42 43 40 35 26 18 19 7 -9 18 4 11 11 22 23 22 22 20 18 12 18 20 13 16 19 17 21 16 17 12 16 17 20 16 11 12 7 7 1 7 9 18 12 19 17 12 11 10 11 12 14 9 4 2 -3 -4 -9 -4 -0 4 5 7 3 -1 7 11 17 17 18 19 19 18 18 18 18 18 18 18 20 21
52 45 42 42 42 45 42 41 43 42 37 30 18 20 7 -4 1 4 6 12 18 20 18 21 20 15 14 18 18 20 13 13 19 17 15 16 11 14 14 11 19 18 16 12 10 6 5 4 9 19 17 18 15 20 18 13 9 10 13 11 6 3 9 0 -1 -4 -4 1 2 1 -1 9 11 17 20 18 18 18 20 19 19 18 19 18 18 19 21 22
48 42 45 38 41 39 42 43 41 42 34 22 19 13 4 3 2 8 11 20 20 19 20 20 17 12 11 15 18 16 19 13 19 13 9 16 16 15 18 16 16 18 10 5 4 4 11 7 10 19 17 15 17 18 20 14 4 8 8 3 5 13 9 1 9 8 5 -2 -0 -2 10 12 14 14 15 16 17 17 17 18 18 18 18 18 19 20 21 23
40 39 29 36 34 34 41 42 43 39 27 23 19 8 9 8 12 15 31 21 19 21 19 9 8 8 7 8 11 15 16 17 16 11 8 13 10 16 18 19 18 17 12 9 11 9 4 8 13 12 10 17 17 20 19 18 15 12 4 7 14 15 11 7 -0 -3 -9 -3 1 5 6 6 9 4 14 15 15 16 17 17 18 18 19 18 19 21 22 23
39 36 33 33 31 40 42 41 39 30 28 22 20 28 24 13 24 25 27 25 21 19 14 11 8 12 7 11 15 13 19 8 14 15 9 15 10 20 20 18 19 15 19 20 6 12 10 8 10 12 13 15 18 18 14 17 19 12 10 12 9 2 6 7 0 -3 -3 -3 -3 0 3 4 8 6 14 14 13 15 16 17 18 18 19 18 18 21 22 21
35 35 26 29 37 40 42 36 31 27 21 20 15 22 22 20 24 22 25 27 21 20 14 15 9 12 14 11 14 17 17 10 13 13 5 9 8 17 16 18 20 21 22 19 13 15 13 4 10 11 14 14 11 11 8 12 14 16 16 11 14 7 3 1 3 1 4 -1 -4 1 -1 4 8 12 15 14 14 16 17 18 19 19 20 19 19 20 21 19
28 25 25 32 38 40 37 34 27 23 21 16 11 14 21 23 26 28 28 28 22 14 14 16 19 12 15 17 18 12 17 15 15 14 9 14 13 17 15 22 16 19 22 21 13 18 12 9 3 9 11 12 10 13 8 10 8 8 7 5 7 3 10 8 3 3 5 -4 -5 -3 -1 -1 11 13 16 16 17 18 19 19 19 19 20 21 19 20 19 17
33 29 26 35 34 39 31 26 22 21 21 22 23 24 27 21 28 28 29 30 28 25 17 19 19 16 17 17 15 20 15 16 16 12 14 13 11 8 18 18 23 18 20 17 14 14 6 8 6 10 10 9 9 13 11 11 11 10 12 7 11 3 7 5 6 -2 -1 1 0 -4 5 -2 10 17 17 17 19 19 20 20 19 18 18 20 19 18 16 15
26 13 17 28 33 32 28 20 17 22 20 16 14 24 27 35 24 23 26 27 24 24 25 23 23 20 21 20 18 17 18 16 17 12 14 10 15 12 15 22 24 24 13 11 10 15 12 10 10 10 11 10 10 13 14 13 12 13 11 9 12 5 5 3 1 2 1 4 3 7 5 6 15 18 17 18 19 20 20 19 19 18 18 16 18 16 15 17
24 16 28 34 31 30 19 13 23 24 17 20 25 24 27 26 24 24 24 24 21 25 21 22 22 16 17 19 19 17 18 13 17 11 13 16 16 17 18 22 24 19 16 13 16 15 24 7 2 7 9 8 9 11 13 14 14 10 11 11 11 11 7 6 4 4 5 4 7 8 6 10 16 19 18 19 20 21 21 20 17 13 12 12 16 14 12 13
26 22 22 32 30 29 19 9 12 17 22 25 24 25 25 27 24 22 24 25 23 23 20 20 20 19 18 21 19 18 18 8 14 15 14 15 12 26 23 21 22 19 17 13 12 17 6 12 8 5 3 4 4 6 10 12 12 12 11 13 11 7 5 3 1 0 5 4 9 8 6 7 18 21 21 21 20 20 19 15 14 12 12 12 13 12 12 13
24 23 28 26 28 29 21 20 19 16 20 17 18 18 21 22 27 25 25 25 25 23 19 18 21 22 20 21 20 21 22 15 12 17 13 12 12 23 22 21 23 17 23 26 32 25 8 10 7 1 1 3 3 4 7 8 8 13 14 11 10 8 8 5 7 4 5 7 10 8 8 18 20 20 17 16 15 14 15 14 14 13 11 12 13 12 10 11
15 5 18 21 22 25 26 25 23 21 14 12 15 14 21 19 21 26 27 27 24 24 20 21 22 21 21 21 20 21 20 21 16 12 14 13 15 17 25 22 22 24 29 32 24 14 6 9 10 8 5 7 10 10 11 17 13 10 11 9 11 6 4 4 4 4 8 8 8 13 15 14 15 18 14 13 14 14 13 13 12 12 10 14 14 11 10 11
20 19 14 11 24 22 21 25 25 23 16 21 14 16 13 21 21 20 27 16 24 22 22 22 23 16 18 19 18 19 21 18 19 16 14 12 14 17 17 23 24 26 30 28 23 10 4 5 8 11 10 12 12 11 12 15 12 13 10 12 12 9 5 4 5 7 14 10 10 15 15 12 10 13 12 12 13 14 13 12 12 11 10 9 10 10 14 10
18 17 17 18 18 12 20 18 24 23 23 23 16 20 18 18 18 13 20 22 24 24 13 15 20 21 21 20 20 12 15 16 16 10 12 13 14 19 17 18 21 22 23 17 15 10 7 6 5 8 8 11 13 13 13 13 14 14 14 13 10 9 6 6 9 14 15 11 11 15 15 12 10 11 12 12 13 13 13 12 12 11 10 10 10 10 10 8
21 21 23 24 14 15 21 19 25 22 22 23 24 22 19 18 14 19 19 20 21 20 17 9 15 19 21 23 18 13 16 11 11 10 14 13 12 16 11 12 21 18 20 17 12 6 7 3 4 6 11 13 13 12 13 13 13 13 11 15 15 11 10 10 12 15 15 14 15 16 13 12 12 11 12 13 13 14 13 12 11 10 9 10 10 9 9 7
17 16 14 24 24 22 23 23 24 22 18 22 14 18 22 20 18 21 22 20 11 14 22 17 18 21 22 22 21 15 16 17 16 14 14 17 18 13 12 13 14 19 18 16 12 13 12 7 13 6 5 10 11 10 10 12 11 12 15 15 14 12 12 12 11 10 14 11 13 14 13 10 12 12 12 13 13 12 11 10 10 9 9 10 9 8 6 5
25 25 24 20 20 18 22 22 21 21 19 20 16 16 21 19 21 22 23 22 16 16 21 20 21 23 22 22 22 21 22 21 22 21 22 21 15 18 12 11 20 17 15 12 9 10 7 9 2 -2 7 8 9 11 11 12 11 10 10 13 14 12 9 11 10 10 11 11 14 13 9 10 12 11 12 12 11 11 10 10 9 8 9 9 7 6 5 3
30 31 27 23 17 20 16 19 19 23 14 17 19 18 17 19 21 23 11 21 25 21 22 22 22 22 20 18 17 20 21 23 24 24 24 24 23 23 22 21 21 18 13 11 10 9 4 7 8 2 6 1 7 9 10 10 8 3 2 12 15 14 14 13 12 11 15 13 12 11 10 10 10 11 10 10 10 10 10 10 8 9 8 7 6 6 4 1